Japanese version Home page |
Updated on April 22, 2023 |
Profile
|
Orbital ElementsEpoch = 2016 Jan. 13.0 TT T = 2016 Jan. 15.33940 TT Peri. = 105.08460 e = 0.1185305 Node = 176.05154 2000.0 q = 2.3317835 AU Incl. = 5.22248 a = 2.6453367 AU n = 0.22907761 P = 4.30 years
|
Magnitudes Graphm1 = 15.5 + 5 log d + 10.0 log r
|
The orbital elements are printed on CBET 5235.
|